Lake Keowee Weather Center

Moon Phase Calendar



Lake Keowee Water Level
Online Cameras

 


      

Current Conditions in Old Pickens
2/22/2024 7:44:56 PM

60°F
Feels Like 58
Clouds
Humidity
41%
Pressure
29.8"
Wind
3.4 mph (N)
Dew Point
36°F
UV Index
0/10 (Low)
Visibility
6 mi

Hourly Forecast

Date & Time Thu, Feb 22
7:00 PM
Thu, Feb 22
8:00 PM
Thu, Feb 22
9:00 PM
Thu, Feb 22
10:00 PM
Thu, Feb 22
11:00 PM
Fri, Feb 23
12:00 AM
Fri, Feb 23
1:00 AM
Fri, Feb 23
2:00 AM
Fri, Feb 23
3:00 AM
Fri, Feb 23
4:00 AM
Fri, Feb 23
5:00 AM
Fri, Feb 23
6:00 AM
Fri, Feb 23
7:00 AM
Fri, Feb 23
8:00 AM
Fri, Feb 23
9:00 AM
Fri, Feb 23
10:00 AM
Fri, Feb 23
11:00 AM
Fri, Feb 23
12:00 PM
Fri, Feb 23
1:00 PM
Fri, Feb 23
2:00 PM
Fri, Feb 23
3:00 PM
Fri, Feb 23
4:00 PM
Fri, Feb 23
5:00 PM
Fri, Feb 23
6:00 PM
Fri, Feb 23
7:00 PM
Fri, Feb 23
8:00 PM
Fri, Feb 23
9:00 PM
Fri, Feb 23
10:00 PM
Fri, Feb 23
11:00 PM
Sat, Feb 24
12:00 AM
Sat, Feb 24
1:00 AM
Sat, Feb 24
2:00 AM
Sat, Feb 24
3:00 AM
Sat, Feb 24
4:00 AM
Sat, Feb 24
5:00 AM
Sat, Feb 24
6:00 AM
Sat, Feb 24
7:00 AM
Sat, Feb 24
8:00 AM
Sat, Feb 24
9:00 AM
Sat, Feb 24
10:00 AM
Sat, Feb 24
11:00 AM
Sat, Feb 24
12:00 PM
Sat, Feb 24
1:00 PM
Sat, Feb 24
2:00 PM
Sat, Feb 24
3:00 PM
Sat, Feb 24
4:00 PM
Sat, Feb 24
5:00 PM
Sat, Feb 24
6:00 PM
Condition
Clouds

Clouds

Clouds

Clouds

Rain

Rain

Rain

Rain

Rain

Rain

Rain

Rain

Rain

Clouds

Clouds

Clouds

Clouds

Rain

Rain

Clouds

Clouds

Clouds

Clear

Clear

Clear

Clear

Clear

Clear

Clear

Clear

Clear

Clear

Clear

Clear

Clear

Clear

Clear

Clear

Clear

Clouds

Clouds

Clouds

Clouds

Clouds

Clouds

Clouds

Clouds

Clouds
Temperature 59°F60°F59°F58°F56°F54°F52°F54°F54°F55°F56°F56°F55°F55°F58°F61°F63°F65°F65°F64°F63°F62°F59°F55°F51°F49°F48°F47°F46°F45°F44°F43°F42°F41°F40°F40°F39°F42°F47°F52°F55°F56°F56°F55°F54°F52°F49°F45°F
Feels Like 57°F58°F57°F56°F55°F52°F51°F53°F54°F55°F56°F55°F55°F54°F57°F60°F62°F63°F64°F62°F61°F60°F57°F53°F49°F47°F46°F44°F43°F41°F40°F39°F38°F37°F37°F37°F37°F39°F44°F50°F53°F53°F53°F52°F51°F49°F45°F41°F
Cloudiness 52%40%52%64%76%88%100%100%100%100%100%99%99%80%75%73%55%46%43%29%17%11%9%7%6%0%0%0%1%2%1%0%0%0%0%1%2%7%7%25%21%20%18%26%30%28%22%18%
Visibility 6 mi6 mi6 mi6 mi6 mi6 mi6 mi5 mi3 mi2 mi6 mi6 mi6 mi6 mi6 mi6 mi6 mi6 mi6 mi6 mi6 mi6 mi6 mi6 mi6 mi6 mi6 mi6 mi6 mi6 mi6 mi6 mi6 mi6 mi6 mi6 mi6 mi6 mi6 mi6 mi6 mi6 mi6 mi6 mi6 mi6 mi6 mi6 mi
Precipitation 0%5%6%17%37%71%77%100%100%100%100%100%100%45%40%43%43%46%45%25%17%15%15%15%15%0%0%0%0%0%0%0%0%0%0%0%0%1%1%2%4%8%8%12%12%13%12%4%
Humidity 46%41%47%53%62%81%95%95%98%98%95%96%93%95%85%74%63%55%49%44%40%43%48%57%63%67%70%72%73%73%72%71%72%72%73%73%74%73%61%53%47%42%41%42%44%46%49%55%
Dew Point 38°F36°F39°F41°F44°F48°F50°F51°F52°F53°F54°F54°F53°F52°F52°F52°F50°F47°F45°F41°F38°F39°F39°F39°F38°F38°F38°F38°F37°F36°F35°F33°F32°F32°F31°F31°F31°F33°F34°F35°F35°F33°F32°F32°F32°F32°F30°F29°F
Pressure 29.8"29.8"29.8"29.77"29.74"29.71"29.65"29.62"29.59"29.56"29.53"29.53"29.53"29.56"29.59"29.56"29.56"29.56"29.56"29.56"29.56"29.59"29.62"29.65"29.71"29.71"29.74"29.77"29.8"29.8"29.8"29.83"29.83"29.83"29.85"29.85"29.85"29.85"29.85"29.83"29.83"29.83"29.83"29.83"29.85"29.88"29.91"29.97"
Wind Speed 6.5 mph5.4 mph5.9 mph6 mph6.4 mph5.7 mph3.6 mph6.1 mph5.3 mph7.8 mph10.4 mph8.5 mph6.3 mph5.2 mph5.7 mph6.8 mph8.6 mph9.6 mph10.4 mph13.2 mph13.1 mph12.1 mph9.8 mph6.8 mph6.6 mph5.9 mph5.8 mph6 mph6.5 mph6.5 mph5.9 mph5.2 mph5 mph5.1 mph4.6 mph4.5 mph4.2 mph4 mph6.2 mph9.5 mph13 mph14.6 mph16 mph16.5 mph15.9 mph14.1 mph12 mph8.3 mph
Wind
Direction
213°
SSW
217°
SW
227°
SW
215°
SW
227°
SW
234°
SW
200°
SSW
234°
SW
217°
SW
231°
SW
236°
SW
247°
WSW
241°
WSW
259°
W
277°
W
276°
W
283°
WNW
297°
WNW
315°
NW
323°
NW
319°
NW
318°
NW
320°
NW
312°
NW
302°
WNW
299°
WNW
296°
WNW
302°
WNW
303°
WNW
305°
NW
303°
WNW
288°
WNW
280°
W
281°
W
282°
WNW
283°
WNW
273°
W
259°
W
254°
WSW
258°
WSW
277°
W
290°
WNW
292°
WNW
291°
WNW
295°
WNW
303°
WNW
317°
NW
319°
NW

Daily Forecast

Date High Low Precip. Humidity
Today
Feb 22

Rain
63 °F
41 °F
37%
51%
Friday
Feb 23

Rain
65 °F
46 °F
100%
55%
Saturday
Feb 24

Clouds
56 °F
35 °F
13%
42%
Sunday
Feb 25

Clouds
56 °F
31 °F
0%
38%
Monday
Feb 26

Clouds
64 °F
41 °F
0%
45%
Tuesday
Feb 27

Clouds
64 °F
50 °F
0%
69%
Wednesday
Feb 28

Clouds
70 °F
48 °F
0%
58%
Thursday
Feb 29

Rain
57 °F
38 °F
100%
83%
Friday
Mar 1

Clear
57 °F
33 °F
0%
32%
Saturday
Mar 2

Clouds
59 °F
38 °F
0%
36%
Sunday
Mar 3

Clouds
59 °F
42 °F
0%
36%
Monday
Mar 4

Clouds
50 °F
44 °F
2%
74%
Tuesday
Mar 5

Clouds
57 °F
49 °F
11%
71%
Wednesday
Mar 6

Rain
68 °F
47 °F
20%
49%
Thursday
Mar 7

Clouds
70 °F
50 °F
1%
44%
Friday
Mar 8

Clear
57 °F
37 °F
0%
22%

Temperature 8-14 Day Outlook



Precipitation 8-14 Day Outlook




Quick Links
Lake Keowee News
Lake Keowee Photos
Lake Keowee Videos




About Us
Contact Us
Site Map
Search Site
Advertise With Us
   
Keowee.USLakes.info
THE LAKE KEOWEE WEBSITE

Copyright 2024, Lakes Online
Privacy    |    Legal